EW3156 Weather Reports


Display with metric or nautical units.
time (UTC)temp
F
wind
direction
speed
MPH
gust
MPH
rain 1hr
in
rain 24hr
in
rain mn
in
humidity
%
barometer
mb
20260904110033 74 150 0.0 0.0 0.00 0.00 0.00 98 1014.4
20260904104517 75 150 0.0 0.0 0.00 0.00 0.00 98 1014.3
20260904103017 75 150 0.0 0.0 0.00 0.00 0.00 97 1014.4
20260904101516 75 150 0.0 0.0 0.00 0.00 0.00 98 1014.3
20260904100013 75 150 0.0 0.0 0.00 0.00 0.00 97 1014.1
20260904094513 75 150 0.0 0.0 0.00 0.00 0.00 97 1014.0
20260904093010 75 150 0.0 0.0 0.00 0.00 0.00 97 1014.0
20260904091513 76 150 0.0 0.0 0.00 0.00 0.00 97 1014.0
20260904090008 76 150 0.0 0.0 0.00 0.00 0.00 96 1014.0
20260904084507 76 150 0.0 0.0 0.00 0.00 0.00 96 1014.0
20260904083006 76 150 0.0 0.0 0.00 0.00 0.00 96 1014.0
20260904081505 76 150 0.0 0.0 0.00 0.00 0.00 96 1014.1
20260904080004 76 150 0.0 0.0 0.00 0.00 0.00 95 1014.1
20260904074505 77 150 0.0 0.0 0.00 0.00 0.00 95 1014.1
20260904073002 77 150 0.0 0.0 0.00 0.00 0.00 94 1014.1
20260904071600 77 150 0.0 0.0 0.00 0.00 0.00 94 1014.1
20260904070100 77 150 0.0 0.0 0.00 0.00 0.00 94 1014.0
20260904064657 77 150 0.0 0.0 0.00 0.00 0.00 94 1014.0
20260904063056 78 150 0.0 0.0 0.00 0.00 0.00 93 1014.1
20260904061555 78 150 0.0 0.0 0.00 0.00 0.00 93 1014.2
20260904060053 78 150 0.0 0.0 0.00 0.00 0.00 92 1014.2
20260904054555 79 150 0.0 0.0 0.00 0.00 0.00 91 1014.1
20260904053050 79 150 0.0 0.0 0.00 0.00 0.00 90 1014.2
20260904051552 79 150 0.0 0.0 0.00 0.00 0.00 91 1014.2
20260904050048 79 150 0.0 0.0 0.00 0.00 0.00 91 1014.2
20260904044545 80 150 0.0 0.0 0.00 0.00 0.00 90 1014.2
20260904043046 80 150 0.0 0.0 0.00 0.00 0.00 89 1014.2
20260904041552 80 150 0.0 0.0 0.00 0.00 0.00 89 1014.2
20260904040043 80 150 0.0 0.0 0.00 0.00 0.00 89 1014.3
20260904034552 80 150 0.0 0.0 0.00 0.00 0.00 88 1014.2
20260904033042 81 150 0.0 0.0 0.00 0.00 0.00 87 1014.4
20260904031545 81 150 0.0 0.0 0.00 0.00 0.00 86 1014.4
20260904030041 81 150 0.0 0.0 0.00 0.00 0.00 85 1014.4
20260904024541 82 150 0.0 0.0 0.00 0.00 0.00 84 1014.5
20260904023040 82 150 0.0 0.0 0.00 0.00 0.00 83 1014.5
20260904021539 83 150 0.0 0.0 0.00 0.00 0.00 82 1014.4
20260904020039 83 150 0.0 0.0 0.00 0.00 0.00 80 1014.2
20260904014540 83 150 0.0 0.0 0.00 0.00 0.00 79 1014.1
20260904013038 84 150 0.0 0.0 0.00 0.00 0.00 79 1014.0
20260904011558 85 150 0.0 0.0 0.00 0.00 0.00 77 1013.9
20260904010041 86 150 0.0 0.0 0.00 0.00 0.00 75 1013.6
20260904004537 87 150 0.0 0.0 0.00 0.00 0.00 74 1013.4
20260904003037 87 150 0.0 1.0 0.00 0.00 0.00 73 1013.4
20260904001536 88 150 0.0 2.0 0.00 0.00 0.00 71 1013.4
20260904000042 89 150 0.0 2.0 0.00 0.00 0.00 71 1013.3
20260903234540 90 150 0.0 1.0 0.00 0.00 0.00 69 1013.0
20260903233035 90 150 0.0 0.0 0.00 0.00 0.00 68 1013.1
20260903231534 91 150 0.0 1.0 0.00 0.00 0.00 66 1013.0
20260903230042 91 150 0.0 1.0 0.00 0.00 0.00 64 1013.0
20260903224532 92 150 0.0 1.0 0.00 0.00 0.00 63 1012.8
20260903223034 94 150 0.0 0.0 0.00 0.00 0.00 61 1012.9
20260903221531 94 150 0.0 1.0 0.00 0.00 0.00 59 1012.8
20260903220030 95 150 0.0 4.0 0.00 0.00 0.00 56 1012.6
20260903214533 95 102 0.0 4.0 0.00 0.00 0.00 55 1012.5
20260903213032 96 65 1.0 4.0 0.00 0.00 0.00 54 1012.5
20260903211524 97 74 1.0 7.0 0.00 0.00 0.00 53 1012.5
20260903210022 97 103 0.0 6.0 0.00 0.00 0.00 52 1012.8
20260903204521 97 84 1.0 10.0 0.00 0.00 0.00 52 1012.9
20260903203029 97 148 1.0 6.0 0.00 0.00 0.00 54 1013.0
20260903201528 97 228 2.0 6.0 0.00 0.00 0.00 53 1013.3
20260903200015 98 85 1.0 8.0 0.00 0.00 0.00 51 1013.6
20260903194516 97 30 2.0 9.0 0.00 0.00 0.00 51 1013.7
20260903193018 97 65 1.0 8.0 0.00 0.00 0.00 52 1014.1
20260903191510 97 86 1.0 6.0 0.00 0.00 0.00 53 1014.1
20260903190008 98 84 2.0 5.0 0.00 0.00 0.00 52 1014.3
20260903184506 97 58 1.0 5.0 0.00 0.00 0.00 54 1014.4
20260903183001 97 69 2.0 5.0 0.00 0.00 0.00 54 1014.5
20260903181558 97 350 2.0 6.0 0.00 0.00 0.00 53 1014.9
20260903174553 93 81 1.0 5.0 0.00 0.00 0.00 58 1015.1
20260903173054 93 90 0.0 3.0 0.00 0.00 0.00 61 1015.3
20260903171602 94 88 2.0 5.0 0.00 0.00 0.00 59 1015.5
20260903170050 93 92 0.0 1.0 0.00 0.00 0.00 62 1015.7
20260903164603 94 92 0.0 1.0 0.00 0.00 0.00 61 1015.9
20260903163049 95 84 0.0 6.0 0.00 0.00 0.00 58 1016.1
20260903161544 95 139 2.0 4.0 0.00 0.00 0.00 58 1016.2
20260903160039 94 92 0.0 6.0 0.00 0.00 0.00 60 1016.5
20260903154546 93 128 0.0 4.0 0.00 0.00 0.00 61 1016.5
20260903153033 93 88 1.0 3.0 0.00 0.00 0.00 61 1016.6
20260903151528 92 185 0.0 4.0 0.00 0.00 0.00 65 1016.5
20260903150026 90 80 0.0 3.0 0.00 0.00 0.00 69 1016.4
20260903144538 89 89 0.0 3.0 0.00 0.00 0.00 73 1016.3
20260903143022 88 85 2.0 3.0 0.00 0.00 0.00 73 1016.2
20260903141510 87 96 0.0 2.0 0.00 0.00 0.00 76 1016.2
20260903140006 85 96 0.0 3.0 0.00 0.00 0.00 79 1016.3
20260903134503 84 102 2.0 3.0 0.00 0.00 0.00 82 1016.3
20260903133103 82 109 1.0 3.0 0.00 0.00 0.00 84 1016.4
20260903131553 80 109 1.0 3.0 0.00 0.00 0.00 89 1016.4
20260903130050 78 110 0.0 2.0 0.00 0.00 0.00 93 1016.4
20260903124553 77 110 0.0 2.0 0.00 0.00 0.00 96 1016.3
20260903123044 76 110 0.0 0.0 0.00 0.00 0.00 98 1016.3
20260903121541 75 110 0.0 0.0 0.00 0.00 0.00 99 1016.1
20260903120053 75 110 0.0 1.0 0.00 0.00 0.00 98 1016.1
20260903114535 74 110 0.0 0.0 0.00 0.00 0.00 98 1016.1
20260903113100 75 110 0.0 0.0 0.00 0.00 0.00 98 1015.9
20260903111530 75 110 0.0 0.0 0.00 0.00 0.00 98 1015.7